Index of /20260430/WXO-DD/model_gdps/15km/00/204
Name Last modified Size Description
Parent Directory -
20260430T00Z_MSC_GDPS_AbsoluteVorticity_IsbL-0200_LatLon0.15_PT204H.grib2 2026-04-30 04:38 1.5M
20260430T00Z_MSC_GDPS_AbsoluteVorticity_IsbL-0250_LatLon0.15_PT204H.grib2 2026-04-30 04:38 1.3M
20260430T00Z_MSC_GDPS_AbsoluteVorticity_IsbL-0500_LatLon0.15_PT204H.grib2 2026-04-30 04:38 1.2M
20260430T00Z_MSC_GDPS_AbsoluteVorticity_IsbL-0700_LatLon0.15_PT204H.grib2 2026-04-30 04:38 1.6M
20260430T00Z_MSC_GDPS_AbsoluteVorticity_IsbL-0850_LatLon0.15_PT204H.grib2 2026-04-30 04:38 1.6M
20260430T00Z_MSC_GDPS_AirTemp-Max_AGL-2m_LatLon0.15_PT204H.grib2 2026-04-30 04:38 741K
20260430T00Z_MSC_GDPS_AirTemp-Min_AGL-2m_LatLon0.15_PT204H.grib2 2026-04-30 04:38 787K
20260430T00Z_MSC_GDPS_AirTemp_AGL-120m_LatLon0.15_PT204H.grib2 2026-04-30 04:38 902K
20260430T00Z_MSC_GDPS_AirTemp_AGL-2m_LatLon0.15_PT204H.grib2 2026-04-30 04:38 1.0M
20260430T00Z_MSC_GDPS_AirTemp_AGL-40m_LatLon0.15_PT204H.grib2 2026-04-30 04:38 805K
20260430T00Z_MSC_GDPS_AirTemp_AGL-80m_LatLon0.15_PT204H.grib2 2026-04-30 04:38 793K
20260430T00Z_MSC_GDPS_AirTemp_IsbL-0001_LatLon0.15_PT204H.grib2 2026-04-30 04:38 661K
20260430T00Z_MSC_GDPS_AirTemp_IsbL-0005_LatLon0.15_PT204H.grib2 2026-04-30 04:38 690K
20260430T00Z_MSC_GDPS_AirTemp_IsbL-0010_LatLon0.15_PT204H.grib2 2026-04-30 04:38 692K
20260430T00Z_MSC_GDPS_AirTemp_IsbL-0020_LatLon0.15_PT204H.grib2 2026-04-30 04:38 784K
20260430T00Z_MSC_GDPS_AirTemp_IsbL-0030_LatLon0.15_PT204H.grib2 2026-04-30 04:38 831K
20260430T00Z_MSC_GDPS_AirTemp_IsbL-0050_LatLon0.15_PT204H.grib2 2026-04-30 04:38 872K
20260430T00Z_MSC_GDPS_AirTemp_IsbL-0100_LatLon0.15_PT204H.grib2 2026-04-30 04:38 960K
20260430T00Z_MSC_GDPS_AirTemp_IsbL-0150_LatLon0.15_PT204H.grib2 2026-04-30 04:38 1.0M
20260430T00Z_MSC_GDPS_AirTemp_IsbL-0175_LatLon0.15_PT204H.grib2 2026-04-30 04:38 956K
20260430T00Z_MSC_GDPS_AirTemp_IsbL-0200_LatLon0.15_PT204H.grib2 2026-04-30 04:38 967K
20260430T00Z_MSC_GDPS_AirTemp_IsbL-0225_LatLon0.15_PT204H.grib2 2026-04-30 04:38 964K
20260430T00Z_MSC_GDPS_AirTemp_IsbL-0250_LatLon0.15_PT204H.grib2 2026-04-30 04:38 1.0M
20260430T00Z_MSC_GDPS_AirTemp_IsbL-0275_LatLon0.15_PT204H.grib2 2026-04-30 04:38 1.0M
20260430T00Z_MSC_GDPS_AirTemp_IsbL-0300_LatLon0.15_PT204H.grib2 2026-04-30 04:38 944K
20260430T00Z_MSC_GDPS_AirTemp_IsbL-0350_LatLon0.15_PT204H.grib2 2026-04-30 04:38 928K
20260430T00Z_MSC_GDPS_AirTemp_IsbL-0400_LatLon0.15_PT204H.grib2 2026-04-30 04:38 945K
20260430T00Z_MSC_GDPS_AirTemp_IsbL-0450_LatLon0.15_PT204H.grib2 2026-04-30 04:38 968K
20260430T00Z_MSC_GDPS_AirTemp_IsbL-0500_LatLon0.15_PT204H.grib2 2026-04-30 04:38 1.0M
20260430T00Z_MSC_GDPS_AirTemp_IsbL-0550_LatLon0.15_PT204H.grib2 2026-04-30 04:38 800K
20260430T00Z_MSC_GDPS_AirTemp_IsbL-0600_LatLon0.15_PT204H.grib2 2026-04-30 04:38 891K
20260430T00Z_MSC_GDPS_AirTemp_IsbL-0650_LatLon0.15_PT204H.grib2 2026-04-30 04:38 920K
20260430T00Z_MSC_GDPS_AirTemp_IsbL-0700_LatLon0.15_PT204H.grib2 2026-04-30 04:38 962K
20260430T00Z_MSC_GDPS_AirTemp_IsbL-0750_LatLon0.15_PT204H.grib2 2026-04-30 04:38 1.0M
20260430T00Z_MSC_GDPS_AirTemp_IsbL-0800_LatLon0.15_PT204H.grib2 2026-04-30 04:38 1.1M
20260430T00Z_MSC_GDPS_AirTemp_IsbL-0850_LatLon0.15_PT204H.grib2 2026-04-30 04:38 1.1M
20260430T00Z_MSC_GDPS_AirTemp_IsbL-0875_LatLon0.15_PT204H.grib2 2026-04-30 04:38 1.2M
20260430T00Z_MSC_GDPS_AirTemp_IsbL-0900_LatLon0.15_PT204H.grib2 2026-04-30 04:38 1.1M
20260430T00Z_MSC_GDPS_AirTemp_IsbL-0925_LatLon0.15_PT204H.grib2 2026-04-30 04:38 1.1M
20260430T00Z_MSC_GDPS_AirTemp_IsbL-0950_LatLon0.15_PT204H.grib2 2026-04-30 04:38 1.1M
20260430T00Z_MSC_GDPS_AirTemp_IsbL-0970_LatLon0.15_PT204H.grib2 2026-04-30 04:38 1.1M
20260430T00Z_MSC_GDPS_AirTemp_IsbL-0985_LatLon0.15_PT204H.grib2 2026-04-30 04:38 1.1M
20260430T00Z_MSC_GDPS_AirTemp_IsbL-1000_LatLon0.15_PT204H.grib2 2026-04-30 04:38 1.1M
20260430T00Z_MSC_GDPS_AirTemp_IsbL-1015_LatLon0.15_PT204H.grib2 2026-04-30 04:38 1.1M
20260430T00Z_MSC_GDPS_Albedo_Sfc_LatLon0.15_PT204H.grib2 2026-04-30 04:38 239K
20260430T00Z_MSC_GDPS_CAPE_Sfc_LatLon0.15_PT204H.grib2 2026-04-30 04:38 3.8M
20260430T00Z_MSC_GDPS_CIN_Sfc_LatLon0.15_PT204H.grib2 2026-04-30 04:38 2.9M
20260430T00Z_MSC_GDPS_CloudWater_EAtm_LatLon0.15_PT204H.grib2 2026-04-30 04:38 541K
20260430T00Z_MSC_GDPS_ConvectivePrecip-Accum_Sfc_LatLon0.15_PT204H.grib2 2026-04-30 04:38 3.7M
20260430T00Z_MSC_GDPS_DewPointDepression_AGL-2m_LatLon0.15_PT204H.grib2 2026-04-30 04:38 758K
20260430T00Z_MSC_GDPS_DewPointDepression_IsbL-0010_LatLon0.15_PT204H.grib2 2026-04-30 04:38 68K
20260430T00Z_MSC_GDPS_DewPointDepression_IsbL-0020_LatLon0.15_PT204H.grib2 2026-04-30 04:38 74K
20260430T00Z_MSC_GDPS_DewPointDepression_IsbL-0030_LatLon0.15_PT204H.grib2 2026-04-30 04:38 88K
20260430T00Z_MSC_GDPS_DewPointDepression_IsbL-0050_LatLon0.15_PT204H.grib2 2026-04-30 04:38 375K
20260430T00Z_MSC_GDPS_DewPointDepression_IsbL-0100_LatLon0.15_PT204H.grib2 2026-04-30 04:38 391K
20260430T00Z_MSC_GDPS_DewPointDepression_IsbL-0150_LatLon0.15_PT204H.grib2 2026-04-30 04:38 496K
20260430T00Z_MSC_GDPS_DewPointDepression_IsbL-0175_LatLon0.15_PT204H.grib2 2026-04-30 04:38 591K
20260430T00Z_MSC_GDPS_DewPointDepression_IsbL-0200_LatLon0.15_PT204H.grib2 2026-04-30 04:38 690K
20260430T00Z_MSC_GDPS_DewPointDepression_IsbL-0225_LatLon0.15_PT204H.grib2 2026-04-30 04:38 771K
20260430T00Z_MSC_GDPS_DewPointDepression_IsbL-0250_LatLon0.15_PT204H.grib2 2026-04-30 04:38 865K
20260430T00Z_MSC_GDPS_DewPointDepression_IsbL-0275_LatLon0.15_PT204H.grib2 2026-04-30 04:38 890K
20260430T00Z_MSC_GDPS_DewPointDepression_IsbL-0300_LatLon0.15_PT204H.grib2 2026-04-30 04:38 936K
20260430T00Z_MSC_GDPS_DewPointDepression_IsbL-0350_LatLon0.15_PT204H.grib2 2026-04-30 04:38 971K
20260430T00Z_MSC_GDPS_DewPointDepression_IsbL-0400_LatLon0.15_PT204H.grib2 2026-04-30 04:38 1.0M
20260430T00Z_MSC_GDPS_DewPointDepression_IsbL-0450_LatLon0.15_PT204H.grib2 2026-04-30 04:38 1.0M
20260430T00Z_MSC_GDPS_DewPointDepression_IsbL-0500_LatLon0.15_PT204H.grib2 2026-04-30 04:38 1.0M
20260430T00Z_MSC_GDPS_DewPointDepression_IsbL-0550_LatLon0.15_PT204H.grib2 2026-04-30 04:38 1.0M
20260430T00Z_MSC_GDPS_DewPointDepression_IsbL-0600_LatLon0.15_PT204H.grib2 2026-04-30 04:38 1.1M
20260430T00Z_MSC_GDPS_DewPointDepression_IsbL-0650_LatLon0.15_PT204H.grib2 2026-04-30 04:38 1.1M
20260430T00Z_MSC_GDPS_DewPointDepression_IsbL-0700_LatLon0.15_PT204H.grib2 2026-04-30 04:38 1.1M
20260430T00Z_MSC_GDPS_DewPointDepression_IsbL-0750_LatLon0.15_PT204H.grib2 2026-04-30 04:38 1.1M
20260430T00Z_MSC_GDPS_DewPointDepression_IsbL-0800_LatLon0.15_PT204H.grib2 2026-04-30 04:38 1.2M
20260430T00Z_MSC_GDPS_DewPointDepression_IsbL-0850_LatLon0.15_PT204H.grib2 2026-04-30 04:38 1.2M
20260430T00Z_MSC_GDPS_DewPointDepression_IsbL-0875_LatLon0.15_PT204H.grib2 2026-04-30 04:38 1.1M
20260430T00Z_MSC_GDPS_DewPointDepression_IsbL-0900_LatLon0.15_PT204H.grib2 2026-04-30 04:38 1.1M
20260430T00Z_MSC_GDPS_DewPointDepression_IsbL-0925_LatLon0.15_PT204H.grib2 2026-04-30 04:38 1.0M
20260430T00Z_MSC_GDPS_DewPointDepression_IsbL-0950_LatLon0.15_PT204H.grib2 2026-04-30 04:38 1.0M
20260430T00Z_MSC_GDPS_DewPointDepression_IsbL-0970_LatLon0.15_PT204H.grib2 2026-04-30 04:38 1.0M
20260430T00Z_MSC_GDPS_DewPointDepression_IsbL-0985_LatLon0.15_PT204H.grib2 2026-04-30 04:38 1.0M
20260430T00Z_MSC_GDPS_DewPointDepression_IsbL-1000_LatLon0.15_PT204H.grib2 2026-04-30 04:38 963K
20260430T00Z_MSC_GDPS_DewPointDepression_IsbL-1015_LatLon0.15_PT204H.grib2 2026-04-30 04:38 903K
20260430T00Z_MSC_GDPS_DewPoint_AGL-2m_LatLon0.15_PT204H.grib2 2026-04-30 04:38 608K
20260430T00Z_MSC_GDPS_DownwardLongwaveRadiationFlux-Accum_Sfc_LatLon0.15_PT204H.grib2 2026-04-30 04:38 712K
20260430T00Z_MSC_GDPS_DownwardShortwaveRadiationFlux-Accum_NTAtm_LatLon0.15_PT204H.grib2 2026-04-30 04:38 259K
20260430T00Z_MSC_GDPS_DownwardShortwaveRadiationFlux-Accum_Sfc_LatLon0.15_PT204H.grib2 2026-04-30 04:38 884K
20260430T00Z_MSC_GDPS_FreezingRain-Accum12h_Sfc_LatLon0.15_PT204H.grib2 2026-04-30 04:38 81K
20260430T00Z_MSC_GDPS_FreezingRain-Accum24h_Sfc_LatLon0.15_PT204H.grib2 2026-04-30 04:38 145K
20260430T00Z_MSC_GDPS_FreezingRain-Accum6h_Sfc_LatLon0.15_PT204H.grib2 2026-04-30 04:38 57K
20260430T00Z_MSC_GDPS_FreezingRain-Accum_Sfc_LatLon0.15_PT204H.grib2 2026-04-30 04:38 394K
20260430T00Z_MSC_GDPS_GeopotentialHeight_IsbL-0001_LatLon0.15_PT204H.grib2 2026-04-30 04:38 438K
20260430T00Z_MSC_GDPS_GeopotentialHeight_IsbL-0005_LatLon0.15_PT204H.grib2 2026-04-30 04:38 490K
20260430T00Z_MSC_GDPS_GeopotentialHeight_IsbL-0010_LatLon0.15_PT204H.grib2 2026-04-30 04:38 474K
20260430T00Z_MSC_GDPS_GeopotentialHeight_IsbL-0020_LatLon0.15_PT204H.grib2 2026-04-30 04:38 407K
20260430T00Z_MSC_GDPS_GeopotentialHeight_IsbL-0030_LatLon0.15_PT204H.grib2 2026-04-30 04:38 561K
20260430T00Z_MSC_GDPS_GeopotentialHeight_IsbL-0050_LatLon0.15_PT204H.grib2 2026-04-30 04:38 564K
20260430T00Z_MSC_GDPS_GeopotentialHeight_IsbL-0100_LatLon0.15_PT204H.grib2 2026-04-30 04:38 612K
20260430T00Z_MSC_GDPS_GeopotentialHeight_IsbL-0150_LatLon0.15_PT204H.grib2 2026-04-30 04:38 633K
20260430T00Z_MSC_GDPS_GeopotentialHeight_IsbL-0175_LatLon0.15_PT204H.grib2 2026-04-30 04:38 638K
20260430T00Z_MSC_GDPS_GeopotentialHeight_IsbL-0200_LatLon0.15_PT204H.grib2 2026-04-30 04:38 643K
20260430T00Z_MSC_GDPS_GeopotentialHeight_IsbL-0225_LatLon0.15_PT204H.grib2 2026-04-30 04:38 640K
20260430T00Z_MSC_GDPS_GeopotentialHeight_IsbL-0250_LatLon0.15_PT204H.grib2 2026-04-30 04:38 644K
20260430T00Z_MSC_GDPS_GeopotentialHeight_IsbL-0275_LatLon0.15_PT204H.grib2 2026-04-30 04:38 643K
20260430T00Z_MSC_GDPS_GeopotentialHeight_IsbL-0300_LatLon0.15_PT204H.grib2 2026-04-30 04:38 640K
20260430T00Z_MSC_GDPS_GeopotentialHeight_IsbL-0350_LatLon0.15_PT204H.grib2 2026-04-30 04:38 629K
20260430T00Z_MSC_GDPS_GeopotentialHeight_IsbL-0400_LatLon0.15_PT204H.grib2 2026-04-30 04:38 618K
20260430T00Z_MSC_GDPS_GeopotentialHeight_IsbL-0450_LatLon0.15_PT204H.grib2 2026-04-30 04:38 609K
20260430T00Z_MSC_GDPS_GeopotentialHeight_IsbL-0500_LatLon0.15_PT204H.grib2 2026-04-30 04:38 532K
20260430T00Z_MSC_GDPS_GeopotentialHeight_IsbL-0550_LatLon0.15_PT204H.grib2 2026-04-30 04:38 524K
20260430T00Z_MSC_GDPS_GeopotentialHeight_IsbL-0600_LatLon0.15_PT204H.grib2 2026-04-30 04:38 522K
20260430T00Z_MSC_GDPS_GeopotentialHeight_IsbL-0650_LatLon0.15_PT204H.grib2 2026-04-30 04:38 692K
20260430T00Z_MSC_GDPS_GeopotentialHeight_IsbL-0700_LatLon0.15_PT204H.grib2 2026-04-30 04:38 691K
20260430T00Z_MSC_GDPS_GeopotentialHeight_IsbL-0750_LatLon0.15_PT204H.grib2 2026-04-30 04:38 700K
20260430T00Z_MSC_GDPS_GeopotentialHeight_IsbL-0800_LatLon0.15_PT204H.grib2 2026-04-30 04:38 709K
20260430T00Z_MSC_GDPS_GeopotentialHeight_IsbL-0850_LatLon0.15_PT204H.grib2 2026-04-30 04:38 720K
20260430T00Z_MSC_GDPS_GeopotentialHeight_IsbL-0875_LatLon0.15_PT204H.grib2 2026-04-30 04:38 724K
20260430T00Z_MSC_GDPS_GeopotentialHeight_IsbL-0900_LatLon0.15_PT204H.grib2 2026-04-30 04:38 729K
20260430T00Z_MSC_GDPS_GeopotentialHeight_IsbL-0925_LatLon0.15_PT204H.grib2 2026-04-30 04:38 736K
20260430T00Z_MSC_GDPS_GeopotentialHeight_IsbL-0950_LatLon0.15_PT204H.grib2 2026-04-30 04:38 740K
20260430T00Z_MSC_GDPS_GeopotentialHeight_IsbL-0970_LatLon0.15_PT204H.grib2 2026-04-30 04:38 753K
20260430T00Z_MSC_GDPS_GeopotentialHeight_IsbL-0985_LatLon0.15_PT204H.grib2 2026-04-30 04:38 767K
20260430T00Z_MSC_GDPS_GeopotentialHeight_IsbL-1000_LatLon0.15_PT204H.grib2 2026-04-30 04:38 787K
20260430T00Z_MSC_GDPS_GeopotentialHeight_IsbL-1015_LatLon0.15_PT204H.grib2 2026-04-30 04:38 809K
20260430T00Z_MSC_GDPS_Humidex_Sfc_LatLon0.15_PT204H.grib2 2026-04-30 04:38 5.3M
20260430T00Z_MSC_GDPS_IcePellets-Accum12h_Sfc_LatLon0.15_PT204H.grib2 2026-04-30 04:38 11K
20260430T00Z_MSC_GDPS_IcePellets-Accum24h_Sfc_LatLon0.15_PT204H.grib2 2026-04-30 04:38 24K
20260430T00Z_MSC_GDPS_IcePellets-Accum6h_Sfc_LatLon0.15_PT204H.grib2 2026-04-30 04:38 9.0K
20260430T00Z_MSC_GDPS_IcePellets-Accum_Sfc_LatLon0.15_PT204H.grib2 2026-04-30 04:38 129K
20260430T00Z_MSC_GDPS_KIndex_Sfc_LatLon0.15_PT204H.grib2 2026-04-30 04:38 6.4M
20260430T00Z_MSC_GDPS_LatentHeatNetFlux_Sfc_LatLon0.15_PT204H.grib2 2026-04-30 04:38 556K
20260430T00Z_MSC_GDPS_LiftedIndex-MU-VT_IsbL-0500_LatLon0.15_PT204H.grib2 2026-04-30 04:38 5.4M
20260430T00Z_MSC_GDPS_NetLongwaveRadiationFlux-Accum_Sfc_LatLon0.15_PT204H.grib2 2026-04-30 04:38 904K
20260430T00Z_MSC_GDPS_NetShortwaveRadiationFlux-Accum_Sfc_LatLon0.15_PT204H.grib2 2026-04-30 04:38 863K
20260430T00Z_MSC_GDPS_O3MixingRatio_Sfc_LatLon0.15_PT204H.grib2 2026-04-30 04:52 2.2M
20260430T00Z_MSC_GDPS_O3_EAtm_LatLon0.15_PT204H.grib2 2026-04-30 04:52 2.4M
20260430T00Z_MSC_GDPS_PlanetaryBoundaryLayerHeight_Sfc_LatLon0.15_PT204H.grib2 2026-04-30 04:38 2.5M
20260430T00Z_MSC_GDPS_Precip-Accum12h_Sfc_LatLon0.15_PT204H.grib2 2026-04-30 04:38 4.0M
20260430T00Z_MSC_GDPS_Precip-Accum24h_Sfc_LatLon0.15_PT204H.grib2 2026-04-30 04:38 4.2M
20260430T00Z_MSC_GDPS_Precip-Accum6h_Sfc_LatLon0.15_PT204H.grib2 2026-04-30 04:38 3.9M
20260430T00Z_MSC_GDPS_Precip-Accum_Sfc_LatLon0.15_PT204H.grib2 2026-04-30 04:38 5.1M
20260430T00Z_MSC_GDPS_PrecipRate_Sfc_LatLon0.15_PT204H.grib2 2026-04-30 04:38 3.0M
20260430T00Z_MSC_GDPS_PrecipType-Instant_Sfc_LatLon0.15_PT204H.grib2 2026-04-30 04:38 1.6M
20260430T00Z_MSC_GDPS_Pressure_MSL_LatLon0.15_PT204H.grib2 2026-04-30 04:38 722K
20260430T00Z_MSC_GDPS_Pressure_PVU-1.5_LatLon0.15_PT204H.grib2 2026-04-30 04:38 5.7M
20260430T00Z_MSC_GDPS_Pressure_PVU-1_LatLon0.15_PT204H.grib2 2026-04-30 04:38 6.0M
20260430T00Z_MSC_GDPS_Pressure_PVU-2_LatLon0.15_PT204H.grib2 2026-04-30 04:38 6.0M
20260430T00Z_MSC_GDPS_Pressure_Sfc_LatLon0.15_PT204H.grib2 2026-04-30 04:38 1.1M
20260430T00Z_MSC_GDPS_RadiativeTemp_Sfc_LatLon0.15_PT204H.grib2 2026-04-30 04:38 501K
20260430T00Z_MSC_GDPS_Rain-Accum12h_Sfc_LatLon0.15_PT204H.grib2 2026-04-30 04:38 2.7M
20260430T00Z_MSC_GDPS_Rain-Accum24h_Sfc_LatLon0.15_PT204H.grib2 2026-04-30 04:38 2.9M
20260430T00Z_MSC_GDPS_Rain-Accum6h_Sfc_LatLon0.15_PT204H.grib2 2026-04-30 04:38 2.5M
20260430T00Z_MSC_GDPS_Rain-Accum_Sfc_LatLon0.15_PT204H.grib2 2026-04-30 04:38 4.0M
20260430T00Z_MSC_GDPS_RelativeHumidity_AGL-2m_LatLon0.15_PT204H.grib2 2026-04-30 04:38 1.0M
20260430T00Z_MSC_GDPS_RelativeHumidity_IsbL-0010_LatLon0.15_PT204H.grib2 2026-04-30 04:38 194K
20260430T00Z_MSC_GDPS_RelativeHumidity_IsbL-0020_LatLon0.15_PT204H.grib2 2026-04-30 04:38 157K
20260430T00Z_MSC_GDPS_RelativeHumidity_IsbL-0030_LatLon0.15_PT204H.grib2 2026-04-30 04:38 179K
20260430T00Z_MSC_GDPS_RelativeHumidity_IsbL-0050_LatLon0.15_PT204H.grib2 2026-04-30 04:38 328K
20260430T00Z_MSC_GDPS_RelativeHumidity_IsbL-0100_LatLon0.15_PT204H.grib2 2026-04-30 04:38 494K
20260430T00Z_MSC_GDPS_RelativeHumidity_IsbL-0150_LatLon0.15_PT204H.grib2 2026-04-30 04:38 676K
20260430T00Z_MSC_GDPS_RelativeHumidity_IsbL-0175_LatLon0.15_PT204H.grib2 2026-04-30 04:38 613K
20260430T00Z_MSC_GDPS_RelativeHumidity_IsbL-0200_LatLon0.15_PT204H.grib2 2026-04-30 04:38 719K
20260430T00Z_MSC_GDPS_RelativeHumidity_IsbL-0225_LatLon0.15_PT204H.grib2 2026-04-30 04:38 795K
20260430T00Z_MSC_GDPS_RelativeHumidity_IsbL-0250_LatLon0.15_PT204H.grib2 2026-04-30 04:38 868K
20260430T00Z_MSC_GDPS_RelativeHumidity_IsbL-0275_LatLon0.15_PT204H.grib2 2026-04-30 04:38 892K
20260430T00Z_MSC_GDPS_RelativeHumidity_IsbL-0300_LatLon0.15_PT204H.grib2 2026-04-30 04:38 933K
20260430T00Z_MSC_GDPS_RelativeHumidity_IsbL-0350_LatLon0.15_PT204H.grib2 2026-04-30 04:38 950K
20260430T00Z_MSC_GDPS_RelativeHumidity_IsbL-0400_LatLon0.15_PT204H.grib2 2026-04-30 04:38 972K
20260430T00Z_MSC_GDPS_RelativeHumidity_IsbL-0450_LatLon0.15_PT204H.grib2 2026-04-30 04:38 1.0M
20260430T00Z_MSC_GDPS_RelativeHumidity_IsbL-0500_LatLon0.15_PT204H.grib2 2026-04-30 04:38 1.0M
20260430T00Z_MSC_GDPS_RelativeHumidity_IsbL-0550_LatLon0.15_PT204H.grib2 2026-04-30 04:38 1.0M
20260430T00Z_MSC_GDPS_RelativeHumidity_IsbL-0600_LatLon0.15_PT204H.grib2 2026-04-30 04:38 1.0M
20260430T00Z_MSC_GDPS_RelativeHumidity_IsbL-0650_LatLon0.15_PT204H.grib2 2026-04-30 04:38 1.1M
20260430T00Z_MSC_GDPS_RelativeHumidity_IsbL-0700_LatLon0.15_PT204H.grib2 2026-04-30 04:38 1.1M
20260430T00Z_MSC_GDPS_RelativeHumidity_IsbL-0750_LatLon0.15_PT204H.grib2 2026-04-30 04:38 1.1M
20260430T00Z_MSC_GDPS_RelativeHumidity_IsbL-0800_LatLon0.15_PT204H.grib2 2026-04-30 04:38 1.2M
20260430T00Z_MSC_GDPS_RelativeHumidity_IsbL-0850_LatLon0.15_PT204H.grib2 2026-04-30 04:38 1.3M
20260430T00Z_MSC_GDPS_RelativeHumidity_IsbL-0875_LatLon0.15_PT204H.grib2 2026-04-30 04:38 1.3M
20260430T00Z_MSC_GDPS_RelativeHumidity_IsbL-0900_LatLon0.15_PT204H.grib2 2026-04-30 04:38 1.2M
20260430T00Z_MSC_GDPS_RelativeHumidity_IsbL-0925_LatLon0.15_PT204H.grib2 2026-04-30 04:38 1.2M
20260430T00Z_MSC_GDPS_RelativeHumidity_IsbL-0950_LatLon0.15_PT204H.grib2 2026-04-30 04:38 1.2M
20260430T00Z_MSC_GDPS_RelativeHumidity_IsbL-0970_LatLon0.15_PT204H.grib2 2026-04-30 04:38 1.2M
20260430T00Z_MSC_GDPS_RelativeHumidity_IsbL-0985_LatLon0.15_PT204H.grib2 2026-04-30 04:38 1.1M
20260430T00Z_MSC_GDPS_RelativeHumidity_IsbL-1000_LatLon0.15_PT204H.grib2 2026-04-30 04:38 1.1M
20260430T00Z_MSC_GDPS_RelativeHumidity_IsbL-1015_LatLon0.15_PT204H.grib2 2026-04-30 04:38 1.0M
20260430T00Z_MSC_GDPS_RelativeVorticity_IsbL-0200_LatLon0.15_PT204H.grib2 2026-04-30 04:38 1.2M
20260430T00Z_MSC_GDPS_RelativeVorticity_IsbL-0250_LatLon0.15_PT204H.grib2 2026-04-30 04:38 1.6M
20260430T00Z_MSC_GDPS_RelativeVorticity_IsbL-0500_LatLon0.15_PT204H.grib2 2026-04-30 04:38 1.2M
20260430T00Z_MSC_GDPS_RelativeVorticity_IsbL-0700_LatLon0.15_PT204H.grib2 2026-04-30 04:38 1.6M
20260430T00Z_MSC_GDPS_RelativeVorticity_IsbL-0850_LatLon0.15_PT204H.grib2 2026-04-30 04:38 1.6M
20260430T00Z_MSC_GDPS_Runoff-Accum_Sfc_LatLon0.15_PT204H.grib2 2026-04-30 04:38 131K
20260430T00Z_MSC_GDPS_SensibleHeatNetFlux_Sfc_LatLon0.15_PT204H.grib2 2026-04-30 04:38 490K
20260430T00Z_MSC_GDPS_ShowalterIndex_IsbL-0500_LatLon0.15_PT204H.grib2 2026-04-30 04:38 6.2M
20260430T00Z_MSC_GDPS_Snow-Accum12h_Sfc_LatLon0.15_PT204H.grib2 2026-04-30 04:38 1.4M
20260430T00Z_MSC_GDPS_Snow-Accum24h_Sfc_LatLon0.15_PT204H.grib2 2026-04-30 04:38 1.5M
20260430T00Z_MSC_GDPS_Snow-Accum6h_Sfc_LatLon0.15_PT204H.grib2 2026-04-30 04:38 1.4M
20260430T00Z_MSC_GDPS_Snow-Accum_Sfc_LatLon0.15_PT204H.grib2 2026-04-30 04:38 2.1M
20260430T00Z_MSC_GDPS_SnowDensity_Sfc_LatLon0.15_PT204H.grib2 2026-04-30 04:38 258K
20260430T00Z_MSC_GDPS_SnowDepth_Sfc_LatLon0.15_PT204H.grib2 2026-04-30 04:38 1.7M
20260430T00Z_MSC_GDPS_SoilTemp_DBS-0to10cm_LatLon0.15_PT204H.grib2 2026-04-30 04:38 516K
20260430T00Z_MSC_GDPS_SoilTemp_Sfc_LatLon0.15_PT204H.grib2 2026-04-30 04:38 593K
20260430T00Z_MSC_GDPS_SoilVolumetricIceContent_Sfc_LatLon0.15_PT204H.grib2 2026-04-30 04:38 183K
20260430T00Z_MSC_GDPS_SoilVolumetricWaterContent_DBS-0to10cm_LatLon0.15_PT204H.grib2 2026-04-30 04:38 594K
20260430T00Z_MSC_GDPS_SoilVolumetricWaterContent_DBS-0to1cm_LatLon0.15_PT204H.grib2 2026-04-30 04:38 648K
20260430T00Z_MSC_GDPS_SpecificHumidity_AGL-120m_LatLon0.15_PT204H.grib2 2026-04-30 04:38 1.1M
20260430T00Z_MSC_GDPS_SpecificHumidity_AGL-2m_LatLon0.15_PT204H.grib2 2026-04-30 04:38 1.2M
20260430T00Z_MSC_GDPS_SpecificHumidity_AGL-40m_LatLon0.15_PT204H.grib2 2026-04-30 04:38 1.1M
20260430T00Z_MSC_GDPS_SpecificHumidity_AGL-80m_LatLon0.15_PT204H.grib2 2026-04-30 04:38 1.1M
20260430T00Z_MSC_GDPS_SpecificHumidity_IsbL-0001_LatLon0.15_PT204H.grib2 2026-04-30 04:38 1.1M
20260430T00Z_MSC_GDPS_SpecificHumidity_IsbL-0005_LatLon0.15_PT204H.grib2 2026-04-30 04:38 1.0M
20260430T00Z_MSC_GDPS_SpecificHumidity_IsbL-0010_LatLon0.15_PT204H.grib2 2026-04-30 04:38 1.1M
20260430T00Z_MSC_GDPS_SpecificHumidity_IsbL-0020_LatLon0.15_PT204H.grib2 2026-04-30 04:38 1.2M
20260430T00Z_MSC_GDPS_SpecificHumidity_IsbL-0030_LatLon0.15_PT204H.grib2 2026-04-30 04:38 1.4M
20260430T00Z_MSC_GDPS_SpecificHumidity_IsbL-0050_LatLon0.15_PT204H.grib2 2026-04-30 04:38 1.4M
20260430T00Z_MSC_GDPS_SpecificHumidity_IsbL-0100_LatLon0.15_PT204H.grib2 2026-04-30 04:38 1.2M
20260430T00Z_MSC_GDPS_SpecificHumidity_IsbL-0150_LatLon0.15_PT204H.grib2 2026-04-30 04:38 1.3M
20260430T00Z_MSC_GDPS_SpecificHumidity_IsbL-0175_LatLon0.15_PT204H.grib2 2026-04-30 04:38 1.3M
20260430T00Z_MSC_GDPS_SpecificHumidity_IsbL-0200_LatLon0.15_PT204H.grib2 2026-04-30 04:38 1.3M
20260430T00Z_MSC_GDPS_SpecificHumidity_IsbL-0225_LatLon0.15_PT204H.grib2 2026-04-30 04:38 1.3M
20260430T00Z_MSC_GDPS_SpecificHumidity_IsbL-0250_LatLon0.15_PT204H.grib2 2026-04-30 04:38 1.5M
20260430T00Z_MSC_GDPS_SpecificHumidity_IsbL-0275_LatLon0.15_PT204H.grib2 2026-04-30 04:38 1.3M
20260430T00Z_MSC_GDPS_SpecificHumidity_IsbL-0300_LatLon0.15_PT204H.grib2 2026-04-30 04:38 1.2M
20260430T00Z_MSC_GDPS_SpecificHumidity_IsbL-0350_LatLon0.15_PT204H.grib2 2026-04-30 04:38 1.2M
20260430T00Z_MSC_GDPS_SpecificHumidity_IsbL-0400_LatLon0.15_PT204H.grib2 2026-04-30 04:38 1.5M
20260430T00Z_MSC_GDPS_SpecificHumidity_IsbL-0450_LatLon0.15_PT204H.grib2 2026-04-30 04:38 1.3M
20260430T00Z_MSC_GDPS_SpecificHumidity_IsbL-0500_LatLon0.15_PT204H.grib2 2026-04-30 04:38 1.4M
20260430T00Z_MSC_GDPS_SpecificHumidity_IsbL-0550_LatLon0.15_PT204H.grib2 2026-04-30 04:38 1.6M
20260430T00Z_MSC_GDPS_SpecificHumidity_IsbL-0600_LatLon0.15_PT204H.grib2 2026-04-30 04:38 1.4M
20260430T00Z_MSC_GDPS_SpecificHumidity_IsbL-0650_LatLon0.15_PT204H.grib2 2026-04-30 04:38 1.5M
20260430T00Z_MSC_GDPS_SpecificHumidity_IsbL-0700_LatLon0.15_PT204H.grib2 2026-04-30 04:38 1.6M
20260430T00Z_MSC_GDPS_SpecificHumidity_IsbL-0750_LatLon0.15_PT204H.grib2 2026-04-30 04:38 1.7M
20260430T00Z_MSC_GDPS_SpecificHumidity_IsbL-0800_LatLon0.15_PT204H.grib2 2026-04-30 04:38 1.9M
20260430T00Z_MSC_GDPS_SpecificHumidity_IsbL-0850_LatLon0.15_PT204H.grib2 2026-04-30 04:38 2.0M
20260430T00Z_MSC_GDPS_SpecificHumidity_IsbL-0875_LatLon0.15_PT204H.grib2 2026-04-30 04:38 2.0M
20260430T00Z_MSC_GDPS_SpecificHumidity_IsbL-0900_LatLon0.15_PT204H.grib2 2026-04-30 04:38 1.6M
20260430T00Z_MSC_GDPS_SpecificHumidity_IsbL-0925_LatLon0.15_PT204H.grib2 2026-04-30 04:38 1.6M
20260430T00Z_MSC_GDPS_SpecificHumidity_IsbL-0950_LatLon0.15_PT204H.grib2 2026-04-30 04:38 1.6M
20260430T00Z_MSC_GDPS_SpecificHumidity_IsbL-0970_LatLon0.15_PT204H.grib2 2026-04-30 04:38 1.6M
20260430T00Z_MSC_GDPS_SpecificHumidity_IsbL-0985_LatLon0.15_PT204H.grib2 2026-04-30 04:38 1.5M
20260430T00Z_MSC_GDPS_SpecificHumidity_IsbL-1000_LatLon0.15_PT204H.grib2 2026-04-30 04:38 1.5M
20260430T00Z_MSC_GDPS_SpecificHumidity_IsbL-1015_LatLon0.15_PT204H.grib2 2026-04-30 04:38 1.5M
20260430T00Z_MSC_GDPS_SpecificHumidity_Sfc_LatLon0.15_PT204H.grib2 2026-04-30 04:38 687K
20260430T00Z_MSC_GDPS_Thickness_IsbL-0850to0700_LatLon0.15_PT204H.grib2 2026-04-30 04:38 473K
20260430T00Z_MSC_GDPS_Thickness_IsbL-1000to0500_LatLon0.15_PT204H.grib2 2026-04-30 04:38 373K
20260430T00Z_MSC_GDPS_Thickness_IsbL-1000to0850_LatLon0.15_PT204H.grib2 2026-04-30 04:38 489K
20260430T00Z_MSC_GDPS_TotalCloudCover_Sfc_LatLon0.15_PT204H.grib2 2026-04-30 04:38 826K
20260430T00Z_MSC_GDPS_TotalTotalsIndex_Sfc_LatLon0.15_PT204H.grib2 2026-04-30 04:38 6.2M
20260430T00Z_MSC_GDPS_UVIndex-ClearSky_Sfc_LatLon0.15_PT204H.grib2 2026-04-30 04:52 1.0M
20260430T00Z_MSC_GDPS_UVIndex_Sfc_LatLon0.15_PT204H.grib2 2026-04-30 04:52 1.5M
20260430T00Z_MSC_GDPS_UpwardLongwaveRadiationFlux_NTAtm_LatLon0.15_PT204H.grib2 2026-04-30 04:38 844K
20260430T00Z_MSC_GDPS_VerticalVelocity_IsbL-0200_LatLon0.15_PT204H.grib2 2026-04-30 04:38 1.2M
20260430T00Z_MSC_GDPS_VerticalVelocity_IsbL-0250_LatLon0.15_PT204H.grib2 2026-04-30 04:38 1.0M
20260430T00Z_MSC_GDPS_VerticalVelocity_IsbL-0500_LatLon0.15_PT204H.grib2 2026-04-30 04:38 1.3M
20260430T00Z_MSC_GDPS_VerticalVelocity_IsbL-0600_LatLon0.15_PT204H.grib2 2026-04-30 04:38 1.3M
20260430T00Z_MSC_GDPS_VerticalVelocity_IsbL-0700_LatLon0.15_PT204H.grib2 2026-04-30 04:38 1.4M
20260430T00Z_MSC_GDPS_VerticalVelocity_IsbL-0850_LatLon0.15_PT204H.grib2 2026-04-30 04:38 1.3M
20260430T00Z_MSC_GDPS_WindChill_Sfc_LatLon0.15_PT204H.grib2 2026-04-30 04:38 5.3M
20260430T00Z_MSC_GDPS_WindDir_AGL-10m_LatLon0.15_PT204H.grib2 2026-04-30 04:38 1.3M
20260430T00Z_MSC_GDPS_WindDir_AGL-120m_LatLon0.15_PT204H.grib2 2026-04-30 04:38 1.3M
20260430T00Z_MSC_GDPS_WindDir_AGL-40m_LatLon0.15_PT204H.grib2 2026-04-30 04:38 1.4M
20260430T00Z_MSC_GDPS_WindDir_AGL-80m_LatLon0.15_PT204H.grib2 2026-04-30 04:38 1.3M
20260430T00Z_MSC_GDPS_WindDir_IsbL-0001_LatLon0.15_PT204H.grib2 2026-04-30 04:38 643K
20260430T00Z_MSC_GDPS_WindDir_IsbL-0005_LatLon0.15_PT204H.grib2 2026-04-30 04:38 805K
20260430T00Z_MSC_GDPS_WindDir_IsbL-0010_LatLon0.15_PT204H.grib2 2026-04-30 04:38 840K
20260430T00Z_MSC_GDPS_WindDir_IsbL-0020_LatLon0.15_PT204H.grib2 2026-04-30 04:38 929K
20260430T00Z_MSC_GDPS_WindDir_IsbL-0030_LatLon0.15_PT204H.grib2 2026-04-30 04:38 937K
20260430T00Z_MSC_GDPS_WindDir_IsbL-0050_LatLon0.15_PT204H.grib2 2026-04-30 04:38 947K
20260430T00Z_MSC_GDPS_WindDir_IsbL-0100_LatLon0.15_PT204H.grib2 2026-04-30 04:38 1.0M
20260430T00Z_MSC_GDPS_WindDir_IsbL-0150_LatLon0.15_PT204H.grib2 2026-04-30 04:38 1.0M
20260430T00Z_MSC_GDPS_WindDir_IsbL-0175_LatLon0.15_PT204H.grib2 2026-04-30 04:38 1.1M
20260430T00Z_MSC_GDPS_WindDir_IsbL-0200_LatLon0.15_PT204H.grib2 2026-04-30 04:38 1.1M
20260430T00Z_MSC_GDPS_WindDir_IsbL-0225_LatLon0.15_PT204H.grib2 2026-04-30 04:38 1.1M
20260430T00Z_MSC_GDPS_WindDir_IsbL-0250_LatLon0.15_PT204H.grib2 2026-04-30 04:38 1.1M
20260430T00Z_MSC_GDPS_WindDir_IsbL-0275_LatLon0.15_PT204H.grib2 2026-04-30 04:38 1.2M
20260430T00Z_MSC_GDPS_WindDir_IsbL-0300_LatLon0.15_PT204H.grib2 2026-04-30 04:38 1.2M
20260430T00Z_MSC_GDPS_WindDir_IsbL-0350_LatLon0.15_PT204H.grib2 2026-04-30 04:38 1.2M
20260430T00Z_MSC_GDPS_WindDir_IsbL-0400_LatLon0.15_PT204H.grib2 2026-04-30 04:38 1.3M
20260430T00Z_MSC_GDPS_WindDir_IsbL-0450_LatLon0.15_PT204H.grib2 2026-04-30 04:38 1.3M
20260430T00Z_MSC_GDPS_WindDir_IsbL-0500_LatLon0.15_PT204H.grib2 2026-04-30 04:38 1.3M
20260430T00Z_MSC_GDPS_WindDir_IsbL-0550_LatLon0.15_PT204H.grib2 2026-04-30 04:38 1.4M
20260430T00Z_MSC_GDPS_WindDir_IsbL-0600_LatLon0.15_PT204H.grib2 2026-04-30 04:38 1.4M
20260430T00Z_MSC_GDPS_WindDir_IsbL-0650_LatLon0.15_PT204H.grib2 2026-04-30 04:38 1.5M
20260430T00Z_MSC_GDPS_WindDir_IsbL-0700_LatLon0.15_PT204H.grib2 2026-04-30 04:38 1.6M
20260430T00Z_MSC_GDPS_WindDir_IsbL-0750_LatLon0.15_PT204H.grib2 2026-04-30 04:38 1.7M
20260430T00Z_MSC_GDPS_WindDir_IsbL-0800_LatLon0.15_PT204H.grib2 2026-04-30 04:38 1.8M
20260430T00Z_MSC_GDPS_WindDir_IsbL-0850_LatLon0.15_PT204H.grib2 2026-04-30 04:38 1.9M
20260430T00Z_MSC_GDPS_WindDir_IsbL-0875_LatLon0.15_PT204H.grib2 2026-04-30 04:38 1.9M
20260430T00Z_MSC_GDPS_WindDir_IsbL-0900_LatLon0.15_PT204H.grib2 2026-04-30 04:38 1.9M
20260430T00Z_MSC_GDPS_WindDir_IsbL-0925_LatLon0.15_PT204H.grib2 2026-04-30 04:38 1.9M
20260430T00Z_MSC_GDPS_WindDir_IsbL-0950_LatLon0.15_PT204H.grib2 2026-04-30 04:38 1.9M
20260430T00Z_MSC_GDPS_WindDir_IsbL-0970_LatLon0.15_PT204H.grib2 2026-04-30 04:38 2.0M
20260430T00Z_MSC_GDPS_WindDir_IsbL-0985_LatLon0.15_PT204H.grib2 2026-04-30 04:38 2.0M
20260430T00Z_MSC_GDPS_WindDir_IsbL-1000_LatLon0.15_PT204H.grib2 2026-04-30 04:38 2.0M
20260430T00Z_MSC_GDPS_WindDir_IsbL-1015_LatLon0.15_PT204H.grib2 2026-04-30 04:38 2.0M
20260430T00Z_MSC_GDPS_WindGust-Max_AGL-10m_LatLon0.15_PT204H.grib2 2026-04-30 04:38 2.2M
20260430T00Z_MSC_GDPS_WindGust-Min_AGL-10m_LatLon0.15_PT204H.grib2 2026-04-30 04:38 2.1M
20260430T00Z_MSC_GDPS_WindGust_AGL-10m_LatLon0.15_PT204H.grib2 2026-04-30 04:38 2.1M
20260430T00Z_MSC_GDPS_WindSpeed_AGL-10m_LatLon0.15_PT204H.grib2 2026-04-30 04:38 1.1M
20260430T00Z_MSC_GDPS_WindSpeed_AGL-120m_LatLon0.15_PT204H.grib2 2026-04-30 04:38 1.2M
20260430T00Z_MSC_GDPS_WindSpeed_AGL-40m_LatLon0.15_PT204H.grib2 2026-04-30 04:38 1.2M
20260430T00Z_MSC_GDPS_WindSpeed_AGL-80m_LatLon0.15_PT204H.grib2 2026-04-30 04:38 1.2M
20260430T00Z_MSC_GDPS_WindSpeed_IsbL-0001_LatLon0.15_PT204H.grib2 2026-04-30 04:38 502K
20260430T00Z_MSC_GDPS_WindSpeed_IsbL-0005_LatLon0.15_PT204H.grib2 2026-04-30 04:38 688K
20260430T00Z_MSC_GDPS_WindSpeed_IsbL-0010_LatLon0.15_PT204H.grib2 2026-04-30 04:38 698K
20260430T00Z_MSC_GDPS_WindSpeed_IsbL-0020_LatLon0.15_PT204H.grib2 2026-04-30 04:38 654K
20260430T00Z_MSC_GDPS_WindSpeed_IsbL-0030_LatLon0.15_PT204H.grib2 2026-04-30 04:38 850K
20260430T00Z_MSC_GDPS_WindSpeed_IsbL-0050_LatLon0.15_PT204H.grib2 2026-04-30 04:38 883K
20260430T00Z_MSC_GDPS_WindSpeed_IsbL-0100_LatLon0.15_PT204H.grib2 2026-04-30 04:38 1.1M
20260430T00Z_MSC_GDPS_WindSpeed_IsbL-0150_LatLon0.15_PT204H.grib2 2026-04-30 04:38 932K
20260430T00Z_MSC_GDPS_WindSpeed_IsbL-0175_LatLon0.15_PT204H.grib2 2026-04-30 04:38 1.0M
20260430T00Z_MSC_GDPS_WindSpeed_IsbL-0200_LatLon0.15_PT204H.grib2 2026-04-30 04:38 1.0M
20260430T00Z_MSC_GDPS_WindSpeed_IsbL-0225_LatLon0.15_PT204H.grib2 2026-04-30 04:38 1.1M
20260430T00Z_MSC_GDPS_WindSpeed_IsbL-0250_LatLon0.15_PT204H.grib2 2026-04-30 04:38 1.1M
20260430T00Z_MSC_GDPS_WindSpeed_IsbL-0275_LatLon0.15_PT204H.grib2 2026-04-30 04:38 1.1M
20260430T00Z_MSC_GDPS_WindSpeed_IsbL-0300_LatLon0.15_PT204H.grib2 2026-04-30 04:38 1.1M
20260430T00Z_MSC_GDPS_WindSpeed_IsbL-0350_LatLon0.15_PT204H.grib2 2026-04-30 04:38 1.1M
20260430T00Z_MSC_GDPS_WindSpeed_IsbL-0400_LatLon0.15_PT204H.grib2 2026-04-30 04:38 1.1M
20260430T00Z_MSC_GDPS_WindSpeed_IsbL-0450_LatLon0.15_PT204H.grib2 2026-04-30 04:38 1.1M
20260430T00Z_MSC_GDPS_WindSpeed_IsbL-0500_LatLon0.15_PT204H.grib2 2026-04-30 04:38 1.1M
20260430T00Z_MSC_GDPS_WindSpeed_IsbL-0550_LatLon0.15_PT204H.grib2 2026-04-30 04:38 1.1M
20260430T00Z_MSC_GDPS_WindSpeed_IsbL-0600_LatLon0.15_PT204H.grib2 2026-04-30 04:38 1.1M
20260430T00Z_MSC_GDPS_WindSpeed_IsbL-0650_LatLon0.15_PT204H.grib2 2026-04-30 04:38 1.4M
20260430T00Z_MSC_GDPS_WindSpeed_IsbL-0700_LatLon0.15_PT204H.grib2 2026-04-30 04:38 1.5M
20260430T00Z_MSC_GDPS_WindSpeed_IsbL-0750_LatLon0.15_PT204H.grib2 2026-04-30 04:38 1.6M
20260430T00Z_MSC_GDPS_WindSpeed_IsbL-0800_LatLon0.15_PT204H.grib2 2026-04-30 04:38 1.8M
20260430T00Z_MSC_GDPS_WindSpeed_IsbL-0850_LatLon0.15_PT204H.grib2 2026-04-30 04:38 1.7M
20260430T00Z_MSC_GDPS_WindSpeed_IsbL-0875_LatLon0.15_PT204H.grib2 2026-04-30 04:38 1.8M
20260430T00Z_MSC_GDPS_WindSpeed_IsbL-0900_LatLon0.15_PT204H.grib2 2026-04-30 04:38 1.8M
20260430T00Z_MSC_GDPS_WindSpeed_IsbL-0925_LatLon0.15_PT204H.grib2 2026-04-30 04:38 1.8M
20260430T00Z_MSC_GDPS_WindSpeed_IsbL-0950_LatLon0.15_PT204H.grib2 2026-04-30 04:38 1.8M
20260430T00Z_MSC_GDPS_WindSpeed_IsbL-0970_LatLon0.15_PT204H.grib2 2026-04-30 04:38 1.9M
20260430T00Z_MSC_GDPS_WindSpeed_IsbL-0985_LatLon0.15_PT204H.grib2 2026-04-30 04:38 1.9M
20260430T00Z_MSC_GDPS_WindSpeed_IsbL-1000_LatLon0.15_PT204H.grib2 2026-04-30 04:38 1.9M
20260430T00Z_MSC_GDPS_WindSpeed_IsbL-1015_LatLon0.15_PT204H.grib2 2026-04-30 04:38 1.8M
20260430T00Z_MSC_GDPS_WindU_AGL-10m_LatLon0.15_PT204H.grib2 2026-04-30 04:38 1.3M
20260430T00Z_MSC_GDPS_WindU_AGL-120m_LatLon0.15_PT204H.grib2 2026-04-30 04:38 960K
20260430T00Z_MSC_GDPS_WindU_AGL-40m_LatLon0.15_PT204H.grib2 2026-04-30 04:38 956K
20260430T00Z_MSC_GDPS_WindU_AGL-80m_LatLon0.15_PT204H.grib2 2026-04-30 04:38 960K
20260430T00Z_MSC_GDPS_WindU_IsbL-0001_LatLon0.15_PT204H.grib2 2026-04-30 04:38 591K
20260430T00Z_MSC_GDPS_WindU_IsbL-0005_LatLon0.15_PT204H.grib2 2026-04-30 04:38 685K
20260430T00Z_MSC_GDPS_WindU_IsbL-0010_LatLon0.15_PT204H.grib2 2026-04-30 04:38 696K
20260430T00Z_MSC_GDPS_WindU_IsbL-0020_LatLon0.15_PT204H.grib2 2026-04-30 04:38 721K
20260430T00Z_MSC_GDPS_WindU_IsbL-0030_LatLon0.15_PT204H.grib2 2026-04-30 04:38 729K
20260430T00Z_MSC_GDPS_WindU_IsbL-0050_LatLon0.15_PT204H.grib2 2026-04-30 04:38 752K
20260430T00Z_MSC_GDPS_WindU_IsbL-0100_LatLon0.15_PT204H.grib2 2026-04-30 04:38 856K
20260430T00Z_MSC_GDPS_WindU_IsbL-0150_LatLon0.15_PT204H.grib2 2026-04-30 04:38 1.0M
20260430T00Z_MSC_GDPS_WindU_IsbL-0175_LatLon0.15_PT204H.grib2 2026-04-30 04:38 1.0M
20260430T00Z_MSC_GDPS_WindU_IsbL-0200_LatLon0.15_PT204H.grib2 2026-04-30 04:38 839K
20260430T00Z_MSC_GDPS_WindU_IsbL-0225_LatLon0.15_PT204H.grib2 2026-04-30 04:38 852K
20260430T00Z_MSC_GDPS_WindU_IsbL-0250_LatLon0.15_PT204H.grib2 2026-04-30 04:38 855K
20260430T00Z_MSC_GDPS_WindU_IsbL-0275_LatLon0.15_PT204H.grib2 2026-04-30 04:38 882K
20260430T00Z_MSC_GDPS_WindU_IsbL-0300_LatLon0.15_PT204H.grib2 2026-04-30 04:38 874K
20260430T00Z_MSC_GDPS_WindU_IsbL-0350_LatLon0.15_PT204H.grib2 2026-04-30 04:38 889K
20260430T00Z_MSC_GDPS_WindU_IsbL-0400_LatLon0.15_PT204H.grib2 2026-04-30 04:38 888K
20260430T00Z_MSC_GDPS_WindU_IsbL-0450_LatLon0.15_PT204H.grib2 2026-04-30 04:38 1.1M
20260430T00Z_MSC_GDPS_WindU_IsbL-0500_LatLon0.15_PT204H.grib2 2026-04-30 04:38 1.1M
20260430T00Z_MSC_GDPS_WindU_IsbL-0550_LatLon0.15_PT204H.grib2 2026-04-30 04:38 1.1M
20260430T00Z_MSC_GDPS_WindU_IsbL-0600_LatLon0.15_PT204H.grib2 2026-04-30 04:38 1.1M
20260430T00Z_MSC_GDPS_WindU_IsbL-0650_LatLon0.15_PT204H.grib2 2026-04-30 04:38 1.2M
20260430T00Z_MSC_GDPS_WindU_IsbL-0700_LatLon0.15_PT204H.grib2 2026-04-30 04:38 1.2M
20260430T00Z_MSC_GDPS_WindU_IsbL-0750_LatLon0.15_PT204H.grib2 2026-04-30 04:38 1.3M
20260430T00Z_MSC_GDPS_WindU_IsbL-0800_LatLon0.15_PT204H.grib2 2026-04-30 04:38 1.4M
20260430T00Z_MSC_GDPS_WindU_IsbL-0850_LatLon0.15_PT204H.grib2 2026-04-30 04:38 1.4M
20260430T00Z_MSC_GDPS_WindU_IsbL-0875_LatLon0.15_PT204H.grib2 2026-04-30 04:38 1.4M
20260430T00Z_MSC_GDPS_WindU_IsbL-0900_LatLon0.15_PT204H.grib2 2026-04-30 04:38 1.4M
20260430T00Z_MSC_GDPS_WindU_IsbL-0925_LatLon0.15_PT204H.grib2 2026-04-30 04:38 1.4M
20260430T00Z_MSC_GDPS_WindU_IsbL-0950_LatLon0.15_PT204H.grib2 2026-04-30 04:38 1.4M
20260430T00Z_MSC_GDPS_WindU_IsbL-0970_LatLon0.15_PT204H.grib2 2026-04-30 04:38 1.4M
20260430T00Z_MSC_GDPS_WindU_IsbL-0985_LatLon0.15_PT204H.grib2 2026-04-30 04:38 1.4M
20260430T00Z_MSC_GDPS_WindU_IsbL-1000_LatLon0.15_PT204H.grib2 2026-04-30 04:38 1.4M
20260430T00Z_MSC_GDPS_WindU_IsbL-1015_LatLon0.15_PT204H.grib2 2026-04-30 04:38 1.3M
20260430T00Z_MSC_GDPS_WindV_AGL-10m_LatLon0.15_PT204H.grib2 2026-04-30 04:38 1.3M
20260430T00Z_MSC_GDPS_WindV_AGL-120m_LatLon0.15_PT204H.grib2 2026-04-30 04:38 1.0M
20260430T00Z_MSC_GDPS_WindV_AGL-40m_LatLon0.15_PT204H.grib2 2026-04-30 04:38 955K
20260430T00Z_MSC_GDPS_WindV_AGL-80m_LatLon0.15_PT204H.grib2 2026-04-30 04:38 1.0M
20260430T00Z_MSC_GDPS_WindV_IsbL-0001_LatLon0.15_PT204H.grib2 2026-04-30 04:38 714K
20260430T00Z_MSC_GDPS_WindV_IsbL-0005_LatLon0.15_PT204H.grib2 2026-04-30 04:38 780K
20260430T00Z_MSC_GDPS_WindV_IsbL-0010_LatLon0.15_PT204H.grib2 2026-04-30 04:38 879K
20260430T00Z_MSC_GDPS_WindV_IsbL-0020_LatLon0.15_PT204H.grib2 2026-04-30 04:38 836K
20260430T00Z_MSC_GDPS_WindV_IsbL-0030_LatLon0.15_PT204H.grib2 2026-04-30 04:38 841K
20260430T00Z_MSC_GDPS_WindV_IsbL-0050_LatLon0.15_PT204H.grib2 2026-04-30 04:38 967K
20260430T00Z_MSC_GDPS_WindV_IsbL-0100_LatLon0.15_PT204H.grib2 2026-04-30 04:38 846K
20260430T00Z_MSC_GDPS_WindV_IsbL-0150_LatLon0.15_PT204H.grib2 2026-04-30 04:38 1.0M
20260430T00Z_MSC_GDPS_WindV_IsbL-0175_LatLon0.15_PT204H.grib2 2026-04-30 04:38 808K
20260430T00Z_MSC_GDPS_WindV_IsbL-0200_LatLon0.15_PT204H.grib2 2026-04-30 04:38 837K
20260430T00Z_MSC_GDPS_WindV_IsbL-0225_LatLon0.15_PT204H.grib2 2026-04-30 04:38 848K
20260430T00Z_MSC_GDPS_WindV_IsbL-0250_LatLon0.15_PT204H.grib2 2026-04-30 04:38 849K
20260430T00Z_MSC_GDPS_WindV_IsbL-0275_LatLon0.15_PT204H.grib2 2026-04-30 04:38 877K
20260430T00Z_MSC_GDPS_WindV_IsbL-0300_LatLon0.15_PT204H.grib2 2026-04-30 04:38 868K
20260430T00Z_MSC_GDPS_WindV_IsbL-0350_LatLon0.15_PT204H.grib2 2026-04-30 04:38 880K
20260430T00Z_MSC_GDPS_WindV_IsbL-0400_LatLon0.15_PT204H.grib2 2026-04-30 04:38 877K
20260430T00Z_MSC_GDPS_WindV_IsbL-0450_LatLon0.15_PT204H.grib2 2026-04-30 04:38 878K
20260430T00Z_MSC_GDPS_WindV_IsbL-0500_LatLon0.15_PT204H.grib2 2026-04-30 04:38 1.1M
20260430T00Z_MSC_GDPS_WindV_IsbL-0550_LatLon0.15_PT204H.grib2 2026-04-30 04:38 1.1M
20260430T00Z_MSC_GDPS_WindV_IsbL-0600_LatLon0.15_PT204H.grib2 2026-04-30 04:38 1.1M
20260430T00Z_MSC_GDPS_WindV_IsbL-0650_LatLon0.15_PT204H.grib2 2026-04-30 04:38 1.2M
20260430T00Z_MSC_GDPS_WindV_IsbL-0700_LatLon0.15_PT204H.grib2 2026-04-30 04:38 1.2M
20260430T00Z_MSC_GDPS_WindV_IsbL-0750_LatLon0.15_PT204H.grib2 2026-04-30 04:38 1.3M
20260430T00Z_MSC_GDPS_WindV_IsbL-0800_LatLon0.15_PT204H.grib2 2026-04-30 04:38 1.3M
20260430T00Z_MSC_GDPS_WindV_IsbL-0850_LatLon0.15_PT204H.grib2 2026-04-30 04:38 1.4M
20260430T00Z_MSC_GDPS_WindV_IsbL-0875_LatLon0.15_PT204H.grib2 2026-04-30 04:38 1.4M
20260430T00Z_MSC_GDPS_WindV_IsbL-0900_LatLon0.15_PT204H.grib2 2026-04-30 04:38 1.4M
20260430T00Z_MSC_GDPS_WindV_IsbL-0925_LatLon0.15_PT204H.grib2 2026-04-30 04:38 1.4M
20260430T00Z_MSC_GDPS_WindV_IsbL-0950_LatLon0.15_PT204H.grib2 2026-04-30 04:38 1.4M
20260430T00Z_MSC_GDPS_WindV_IsbL-0970_LatLon0.15_PT204H.grib2 2026-04-30 04:38 1.4M
20260430T00Z_MSC_GDPS_WindV_IsbL-0985_LatLon0.15_PT204H.grib2 2026-04-30 04:38 1.4M
20260430T00Z_MSC_GDPS_WindV_IsbL-1000_LatLon0.15_PT204H.grib2 2026-04-30 04:38 1.4M
20260430T00Z_MSC_GDPS_WindV_IsbL-1015_LatLon0.15_PT204H.grib2 2026-04-30 04:38 1.3M